Yamba Observation History
Time Wind Speed Temp Pressure Rel. Hum Rain
04/07:30am WSW 5-8 kts 11.5°c 1028.3 hPa 70% 0.0mm
04/07:00am WSW 5-8 kts 11.5°c 1028.0 hPa 67% 0.0mm
04/06:30am SW 5-9 kts 11.6°c 1027.6 hPa 65% 0.0mm
04/06:00am WSW 6-9 kts 11.9°c 1027.0 hPa 65% 0.0mm
04/05:30am WSW 5-9 kts 12.1°c 1026.7 hPa 64% 0.0mm
04/05:00am W 5-8 kts 11.8°c 1026.4 hPa 68% 0.0mm
04/04:30am WSW 4-8 kts 12.0°c 1026.1 hPa 66% 0.0mm
04/04:00am WSW 5-9 kts 11.7°c 1026.1 hPa 66% 0.0mm
04/03:30am WSW 4-7 kts 11.0°c 1025.9 hPa 68% 0.0mm
04/03:00am W 5-7 kts 11.4°c 1025.9 hPa 69% 0.0mm
04/02:30am WSW 4-8 kts 11.7°c 1026.1 hPa 64% 0.0mm
04/02:00am WSW 4-7 kts 11.7°c 1026.2 hPa 63% 0.0mm
04/01:30am W 4-6 kts 12.2°c 1026.0 hPa 62% 0.0mm
04/01:00am SW 6-9 kts 14.3°c 1026.3 hPa 51% 0.0mm
04/12:30am SW 8-13 kts 15.0°c 1026.2 hPa 46% 0.0mm
04/12:00am SSW 11-16 kts 15.1°c 1026.2 hPa 45% 0.0mm
Time Wind Speed Temp Pressure Rel. Hum Rain
03/11:30pm SSW 12-16 kts 15.1°c 1026.2 hPa 45% 0.0mm
03/11:00pm SSW 11-17 kts 15.1°c 1026.2 hPa 49% 0.0mm
03/10:30pm SSW 12-18 kts 15.5°c 1026.2 hPa 52% 0.0mm
03/10:00pm SSW 11-18 kts 15.3°c 1026.0 hPa 52% 0.0mm
03/09:30pm SSW 10-16 kts 15.3°c 1025.9 hPa 52% 0.0mm
03/09:00pm SW 6-11 kts 15.2°c 1025.5 hPa 57% 0.0mm
03/08:30pm WSW 5-8 kts 14.2°c 1025.3 hPa 65% 0.0mm
03/08:00pm SW 6-11 kts 15.0°c 1025.0 hPa 60% 0.0mm
03/07:30pm SW 4-7 kts 15.9°c 1024.6 hPa 57% 0.0mm
03/07:00pm S 11-17 kts 17.9°c 1024.0 hPa 51% 0.0mm
03/06:30pm S 12-22 kts 18.0°c 1023.5 hPa 50% 0.0mm
03/06:00pm SSE 13-20 kts 17.8°c 1023.0 hPa 54% 0.0mm
03/05:30pm SSE 15-20 kts 17.8°c 1022.4 hPa 55% 0.0mm
03/05:00pm SSE 16-24 kts 17.8°c 1022.0 hPa 54% 0.0mm
03/04:30pm SSE 14-22 kts 17.7°c 1021.6 hPa 56% 0.0mm
03/04:00pm SSE 15-20 kts 18.0°c 1021.3 hPa 54% 0.0mm
03/03:30pm SSE 13-22 kts 18.3°c 1021.1 hPa 50% 0.0mm
03/03:00pm S 12-18 kts 18.6°c 1020.8 hPa 47% 0.0mm
03/02:30pm S 11-16 kts 18.7°c 1020.7 hPa 45% 0.0mm
03/02:00pm S 9-15 kts 18.9°c 1020.5 hPa 39% 0.0mm
03/01:30pm SSE 10-14 kts 18.7°c 1020.2 hPa 38% 0.0mm
03/01:00pm SSE 5-8 kts 18.7°c 1020.3 hPa 41% 0.0mm
03/12:30pm SSE 4-7 kts 18.5°c 1020.4 hPa 37% 0.0mm
03/12:00pm SW 5-8 kts 18.2°c 1020.8 hPa 38% 0.0mm
03/11:30am W 6-8 kts 17.7°c 1021.0 hPa 41% 0.0mm
03/11:00am W 6-8 kts 17.4°c 1021.6 hPa 44% 0.0mm
03/10:30am WSW 5-9 kts 16.2°c 1021.6 hPa 45% 0.0mm
03/10:00am W 7-11 kts 15.3°c 1021.7 hPa 48% 0.0mm
03/09:30am WSW 7-12 kts 14.2°c 1021.6 hPa 52% 0.0mm
03/09:00am W 6-11 kts 13.2°c 1021.6 hPa 53% 0.0mm
03/08:30am W 6-9 kts 12.2°c 1021.4 hPa 58% 0.0mm
03/08:00am W 6-10 kts 11.0°c 1021.2 hPa 61% 0.0mm
03/07:30am W 6-11 kts 10.4°c 1020.8 hPa 62% 0.0mm
03/07:00am WSW 5-9 kts 9.7°c 1020.3 hPa 62% 0.0mm
03/06:30am W 7-9 kts 9.5°c 1019.8 hPa 65% 0.0mm
03/06:00am W 6-9 kts 9.1°c 1019.4 hPa 70% 0.0mm
03/05:30am W 5-8 kts 9.2°c 1019.1 hPa 69% 0.0mm
03/05:00am W 6-11 kts 9.7°c 1018.8 hPa 61% 0.0mm
03/04:30am WSW 5-9 kts 9.9°c 1018.6 hPa 61% 0.0mm
03/04:00am WSW 6-8 kts 9.8°c 1018.5 hPa 64% 0.0mm
03/03:30am W 6-10 kts 10.3°c 1018.5 hPa 64% 0.0mm
03/03:00am W 7-10 kts 10.5°c 1018.6 hPa 67% 0.0mm
03/02:30am WNW 8-11 kts 10.1°c 1018.7 hPa 68% 0.0mm
03/02:00am WNW 8-10 kts 10.0°c 1018.5 hPa 67% 0.0mm
03/01:30am WNW 7-11 kts 11.0°c 1018.3 hPa 64% 0.0mm
03/01:00am W 7-10 kts 10.9°c 1018.3 hPa 67% 0.0mm
03/12:30am WNW 8-10 kts 10.6°c 1018.4 hPa 63% 0.0mm
03/12:00am WNW 7-11 kts 11.0°c 1018.8 hPa 62% 0.0mm
Time Wind Speed Temp Pressure Rel. Hum Rain
02/11:30pm WNW 7-11 kts 11.4°c 1019.1 hPa 61% 0.0mm
02/11:00pm WNW 9-12 kts 11.6°c 1019.1 hPa 56% 0.0mm
02/10:30pm WNW 9-12 kts 12.0°c 1018.8 hPa 53% 0.0mm
02/10:00pm WNW 7-10 kts 12.0°c 1018.6 hPa 53% 0.0mm
02/09:30pm WNW 10-14 kts 12.5°c 1018.4 hPa 50% 0.0mm
02/09:00pm WNW 8-13 kts 12.8°c 1018.5 hPa 49% 0.0mm
02/08:30pm WNW 10-14 kts 12.9°c 1018.1 hPa 49% 0.0mm
02/08:00pm WNW 10-14 kts 13.3°c 1017.8 hPa 53% 0.0mm
02/07:30pm WNW 10-15 kts 13.6°c 1017.7 hPa 48% 0.0mm
02/07:00pm WNW 8-11 kts 13.8°c 1017.5 hPa 46% 0.0mm
02/06:30pm WNW 7-9 kts 14.2°c 1017.0 hPa 46% 0.0mm
02/06:00pm WNW 7-12 kts 15.3°c 1016.2 hPa 42% 0.0mm
02/05:30pm W 8-14 kts 15.2°c 1015.6 hPa 43% 0.0mm
02/05:00pm W 5-8 kts 15.7°c 1015.5 hPa 40% 0.0mm
02/04:30pm W 6-11 kts 16.7°c 1015.3 hPa 38% 0.0mm
02/04:00pm WNW 11-17 kts 17.3°c 1014.8 hPa 34% 0.0mm
02/03:30pm W 8-14 kts 18.1°c 1014.7 hPa 35% 0.0mm
02/03:00pm W 12-22 kts 18.2°c 1014.6 hPa 32% 0.0mm
02/02:30pm WNW 9-19 kts 18.5°c 1014.4 hPa 34% 0.0mm
02/02:00pm WNW 10-15 kts 18.5°c 1014.3 hPa 37% 0.0mm
02/01:30pm W 10-23 kts 18.3°c 1014.7 hPa 36% 0.0mm
02/01:00pm W 12-22 kts 17.5°c 1014.9 hPa 34% 0.0mm
02/12:30pm W 11-19 kts 17.5°c 1015.0 hPa 35% 0.0mm
02/12:00pm W 13-23 kts 17.2°c 1015.6 hPa 34% 0.0mm
02/11:30am W 12-21 kts 16.7°c 1015.6 hPa 33% 0.0mm
02/11:00am W 10-18 kts 16.4°c 1016.1 hPa 39% 0.0mm
02/10:30am WNW 11-21 kts 15.3°c 1016.5 hPa 41% 0.0mm
02/10:00am W 8-15 kts 15.2°c 1017.0 hPa 40% 0.0mm
02/09:30am W 7-14 kts 14.7°c 1017.4 hPa 44% 0.0mm
02/09:00am W 7-15 kts 14.0°c 1017.3 hPa 43% 0.0mm
02/08:30am WSW 7-12 kts 13.8°c 1016.9 hPa 45% 0.0mm
02/08:00am WSW 6-14 kts 13.2°c 1017.0 hPa 50% 0.0mm
02/07:30am WSW 6-13 kts 12.7°c 1016.6 hPa 52% 0.0mm
02/07:00am SW 6-12 kts 12.5°c 1016.3 hPa 55% 0.0mm
02/06:30am WSW 4-8 kts 12.1°c 1015.5 hPa 61% 0.0mm
02/06:00am WSW 4-6 kts 12.6°c 1015.0 hPa 68% 0.0mm
02/05:30am WNW 6-8 kts 13.5°c 1014.5 hPa 65% 0.0mm
02/05:00am WNW 7-10 kts 13.8°c 1014.1 hPa 69% 0.0mm
02/04:30am WNW 7-10 kts 14.0°c 1013.9 hPa 67% 0.0mm
02/04:00am WNW 6-9 kts 14.1°c 1013.5 hPa 68% 0.0mm
02/03:30am WNW 6-9 kts 14.5°c 1013.2 hPa 67% 0.0mm
02/03:00am WNW 6-10 kts 13.9°c 1013.1 hPa 76% 0.0mm
02/02:30am WNW 5-7 kts 14.9°c 1012.9 hPa 82% 0.0mm
02/02:00am NW 5-7 kts 15.2°c 1012.6 hPa 84% 0.0mm
02/01:30am NW 7-9 kts 15.6°c 1012.8 hPa 77% 0.0mm
02/01:00am NW 7-9 kts 15.8°c 1012.6 hPa 82% 0.0mm
02/12:30am NW 6-9 kts 16.6°c 1012.7 hPa 84% 0.0mm
02/12:00am NNW 8-12 kts 17.2°c 1012.6 hPa 82% 0.0mm